Regional Weather Roundup
Issued by NWS

Home | Current Version | Previous Version | Graphics & Text | Print | Product List | Glossary On
Versions: 1 2 3 4 5 6 7 8 9 10 11 12 13 14 15 16 17 18 19 20 21 22 23 24 25 26 27 28 29 30 31 32 33 34 35 36 37 38 39 40 41 42 43 44 45 46 47 48 49 50
000
ASUS43 KFSD 011310
RWRSD

WEATHER ROUNDUP FOR SOUTH DAKOTA
NATIONAL WEATHER SERVICE SIOUX FALLS SD
800 AM CDT WED OCT 01 2014

NOTE: "FAIR" INDICATES FEW OR NO CLOUDS BELOW 12,000 FEET WITH NO
SIGNIFICANT WEATHER AND/OR OBSTRUCTIONS TO VISIBILITY.


SDZ001>005-009-010-012>017-011400-
NORTHWEST AND NORTH CENTRAL SOUTH DAKOTA

CITY           SKY/WX    TMP DP  RH WIND       PRES   REMARKS
BUFFALO          N/A     51  48  89 NW16      29.70R
FAITH            N/A     51  48  89 W14       29.74R
MOBRIDGE       MOCLDY    55  51  86 W5        29.68R
$$

SDZ012>016-024>037-041>051-057-063-072>074-011400-
SOUTHWEST AND SOUTH CENTRAL SOUTH DAKOTA

CITY           SKY/WX    TMP DP  RH WIND       PRES   REMARKS
RAPID CTY ARPT MOCLDY    49  44  83 N10       29.79R
PIERRE         PTCLDY    53  47  79 W12       29.73R
CUSTER         PTCLDY    43  39  86 W5        29.85R
ELLSWORTH AFB  MOCLDY    51  46  80 N8        29.79R
PHILIP         PTCLDY    48  45  89 W6        29.78R
PINE RIDGE     CLEAR     43  41  93 CALM      29.82R
WINNER         FAIR      51  46  83 W8        29.76R
$$

SDZ004>011-016>023-039-040-011400-
NORTHEAST SOUTH DAKOTA

CITY           SKY/WX    TMP DP  RH WIND       PRES   REMARKS
ABERDEEN       CLOUDY    53  50  89 SW5       29.69R
WATERTOWN      CLOUDY    60  58  92 SW14      29.72R
SISSETON         N/A     60  59  96 SW8       29.67R
$$

SDZ017-020-022-023-036>040-048>070-011400-
SOUTHEAST SOUTH DAKOTA

CITY           SKY/WX    TMP DP  RH WIND       PRES   REMARKS
SIOUX FALLS    CLOUDY    63  61  93 S8        29.73S
HURON          CLOUDY    61  59  93 S3        29.70S FOG
CHAMBERLAIN    MOCLDY    51  49  95 W3        29.74R
MITCHELL       CLOUDY    61  59  93 S3        29.72R
YANKTON        CLOUDY    63  59  88 SE7       29.73R
$$

ABBREVIATIONS USED IN REMARKS
   TC - TEMPERATURE IN CELSIUS
  WCI - WIND CHILL INDEX
   HX - HEAT INDEX
  VSB - VISIBILITY




USA.gov is the U.S. government's official web portal to all federal, state and local government web resources and services.